TimeCST,TemperatureF,Dew PointF,Humidity,Sea Level PressureIn,VisibilityMPH,Wind Direction,Wind SpeedMPH,Gust SpeedMPH,PrecipitationIn,Events,Conditions,WindDirDegrees,DateUTC
12:00 AM,19.4,19.4,100,30.06,0.8,Calm,Calm,-,N/A,,Mist,0,2013-02-25 06:00:00
12:24 AM,21.2,19.4,93,30.06,0.5,Calm,Calm,-,N/A,Fog,Light Freezing Fog,0,2013-02-25 06:24:00
12:34 AM,21.2,19.4,93,30.06,0.2,Calm,Calm,-,N/A,Fog,Light Freezing Fog,0,2013-02-25 06:34:00
12:56 AM,19.9,19.0,96,30.14,0.2,West,3.5,-,N/A,Fog,Light Freezing Fog,270,2013-02-25 06:56:00
1:45 AM,19.4,17.6,93,30.07,0.5,Calm,Calm,-,N/A,Fog,Light Freezing Fog,0,2013-02-25 07:45:00
1:56 AM,19.9,19.0,96,30.14,0.8,Calm,Calm,-,N/A,,Mist,0,2013-02-25 07:56:00
2:14 AM,19.4,17.6,93,30.06,1.0,Calm,Calm,-,N/A,,Overcast,0,2013-02-25 08:14:00
2:28 AM,19.4,17.6,93,30.06,0.8,Calm,Calm,-,N/A,,Overcast,0,2013-02-25 08:28:00
2:56 AM,19.0,17.1,92,30.12,1.0,West,3.5,-,N/A,,Overcast,270,2013-02-25 08:56:00
3:13 AM,17.6,15.8,93,30.05,1.8,Calm,Calm,-,N/A,,Scattered Clouds,0,2013-02-25 09:13:00
3:27 AM,15.8,15.8,100,30.05,0.8,Calm,Calm,-,N/A,,Mist,0,2013-02-25 09:27:00
3:32 AM,15.8,15.8,100,30.05,0.2,Calm,Calm,-,N/A,Fog,Light Freezing Fog,0,2013-02-25 09:32:00
3:45 AM,17.6,14.0,86,30.04,0.5,Calm,Calm,-,N/A,Fog,Light Freezing Fog,0,2013-02-25 09:45:00
3:54 AM,15.8,12.2,86,30.05,2.0,Calm,Calm,-,N/A,,Mostly Cloudy,0,2013-02-25 09:54:00
3:56 AM,16.0,14.0,92,30.12,2.0,Calm,Calm,-,N/A,,Mostly Cloudy,0,2013-02-25 09:56:00
4:06 AM,15.8,12.2,86,30.05,2.0,Calm,Calm,-,N/A,,Scattered Clouds,0,2013-02-25 10:06:00
4:11 AM,15.8,12.2,86,30.05,1.8,Calm,Calm,-,N/A,,Mostly Cloudy,0,2013-02-25 10:11:00
4:19 AM,15.8,12.2,86,30.05,2.5,Calm,Calm,-,N/A,,Mostly Cloudy,0,2013-02-25 10:19:00
4:34 AM,17.6,15.8,93,30.06,3.0,Calm,Calm,-,N/A,,Overcast,0,2013-02-25 10:34:00
4:46 AM,17.6,15.8,93,30.06,2.5,WSW,3.5,-,N/A,,Overcast,250,2013-02-25 10:46:00
4:56 AM,19.0,17.1,92,30.13,2.5,SW,3.5,-,N/A,,Overcast,220,2013-02-25 10:56:00
5:56 AM,19.9,18.0,92,30.12,2.5,WNW,3.5,-,N/A,,Overcast,300,2013-02-25 11:56:00
6:23 AM,21.2,19.4,93,30.04,2.5,NW,6.9,-,N/A,,Overcast,310,2013-02-25 12:23:00
6:56 AM,23.0,21.0,92,30.13,2.5,WNW,3.5,-,N/A,,Overcast,290,2013-02-25 12:56:00
7:46 AM,21.2,19.4,93,30.08,3.0,SW,3.5,-,N/A,,Mostly Cloudy,220,2013-02-25 13:46:00
7:56 AM,19.0,18.0,96,30.14,3.0,Calm,Calm,-,N/A,,Mostly Cloudy,0,2013-02-25 13:56:00
8:06 AM,19.4,17.6,93,30.07,3.0,Calm,Calm,-,N/A,,Scattered Clouds,0,2013-02-25 14:06:00
8:56 AM,18.0,16.0,92,30.14,3.0,WNW,5.8,-,N/A,,Partly Cloudy,290,2013-02-25 14:56:00
9:38 AM,19.4,17.6,93,30.08,3.0,West,3.5,-,N/A,,Mostly Cloudy,260,2013-02-25 15:38:00
9:56 AM,19.9,18.0,92,30.16,3.0,WNW,4.6,-,N/A,,Overcast,300,2013-02-25 15:56:00
10:25 AM,21.2,19.4,93,30.08,4.0,NNW,3.5,-,N/A,,Overcast,330,2013-02-25 16:25:00
10:56 AM,25.0,21.0,85,30.14,4.0,Calm,Calm,-,N/A,,Mostly Cloudy,0,2013-02-25 16:56:00
11:56 AM,26.1,21.9,84,30.14,4.0,NNW,9.2,-,N/A,,Mostly Cloudy,340,2013-02-25 17:56:00
12:56 PM,26.1,21.9,84,30.13,4.0,NNW,3.5,-,N/A,,Overcast,340,2013-02-25 18:56:00
1:36 PM,26.6,21.2,80,30.03,5.0,NNE,8.1,-,N/A,,Haze,30,2013-02-25 19:36:00
1:56 PM,27.0,21.9,81,30.09,7.0,NE,8.1,-,N/A,,Mostly Cloudy,40,2013-02-25 19:56:00
2:56 PM,26.1,21.9,84,30.09,7.0,NNE,6.9,-,N/A,,Overcast,30,2013-02-25 20:56:00
3:56 PM,26.1,21.9,84,30.09,6.0,NE,9.2,-,N/A,,Overcast,40,2013-02-25 21:56:00
4:56 PM,26.1,21.9,84,30.08,6.0,NNE,10.4,-,N/A,,Overcast,30,2013-02-25 22:56:00
5:56 PM,25.0,21.9,88,30.08,5.0,NE,8.1,-,N/A,,Overcast,50,2013-02-25 23:56:00
6:56 PM,24.1,21.9,91,30.08,5.0,East,9.2,-,N/A,,Overcast,90,2013-02-26 00:56:00
7:56 PM,24.1,21.9,91,30.08,5.0,ENE,3.5,-,N/A,,Overcast,70,2013-02-26 01:56:00
8:56 PM,25.0,23.0,92,30.06,4.0,East,8.1,-,N/A,,Overcast,100,2013-02-26 02:56:00
9:35 PM,24.8,23.0,93,29.98,3.0,East,6.9,-,N/A,,Overcast,100,2013-02-26 03:35:00
9:56 PM,25.0,23.0,92,30.04,3.0,East,4.6,-,N/A,,Overcast,80,2013-02-26 03:56:00
10:56 PM,24.1,23.0,96,30.03,3.0,ENE,6.9,-,N/A,,Overcast,70,2013-02-26 04:56:00
11:56 PM,24.1,23.0,96,30.03,3.0,East,5.8,-,N/A,,Overcast,90,2013-02-26 05:56:00